Location: Bazinghen
(50.8246°N, 1.6616°E)
Time: 18:21:07
(UTC+00:00)

Cosmos 1953 Rocket - Pass Details

Date: 09 April 2020
Orbit: 604 x 635 km, 82.5° (Epoch: 22 May)

Event Time Altitude Azimuth Distance (km) Brightness Sun altitude
Rises 19:24:42 0° 349° (NNW) 2,937 7.5 -7.6°
Reaches altitude 10° 19:26:57 10° 348° (NNW) 2,028 6.7 -7.9°
Maximum altitude 19:31:27 83° 261° (W) 647 3.7 -8.5°
Drops below altitude 10° 19:35:56 10° 174° (S) 2,017 5.9 -9.2°
Sets 19:38:10 0° 174° (S) 2,920 6.7 -9.5°
